| time (UTC) | temp F | wind direction | speed MPH | gust MPH | rain 1hr in | rain 24hr in | rain mn in | humidity % | barometer mb |
| 20260901173047 | 84 | 268 | 4.0 | 9.0 | 0.00 | 0.00 | 0.00 | 53 | 1023.4 |
| 20260901173001 | 84 | 191 | 5.0 | 9.0 | 0.00 | 0.00 | 0.00 | 54 | 1013.9 |
| 20260901171602 | 83 | 233 | 4.0 | 10.0 | 0.00 | 0.00 | 0.00 | 56 | 1014.1 |
| 20260901171553 | 83 | 236 | 3.0 | 10.0 | 0.00 | 0.00 | 0.00 | 55 | 1023.5 |
| 20260901170100 | 82 | 232 | 6.0 | 9.0 | 0.00 | 0.00 | 0.00 | 55 | 1014.1 |
| 20260901170058 | 82 | 206 | 5.0 | 9.0 | 0.00 | 0.00 | 0.00 | 55 | 1023.7 |
| 20260901164600 | 81 | 224 | 4.0 | 10.0 | 0.00 | 0.00 | 0.00 | 57 | 1023.9 |
| 20260901164553 | 82 | 209 | 3.0 | 10.0 | 0.00 | 0.00 | 0.00 | 57 | 1014.3 |
| 20260901163104 | 82 | 234 | 1.0 | 6.0 | 0.00 | 0.00 | 0.00 | 60 | 1024.0 |
| 20260901163050 | 82 | 233 | 1.0 | 6.0 | 0.00 | 0.00 | 0.00 | 59 | 1014.5 |
| 20260901161551 | 81 | 0 | 1.0 | 8.0 | 0.00 | 0.00 | 0.00 | 62 | 1024.2 |
| 20260901161546 | 81 | 265 | 1.0 | 8.0 | 0.00 | 0.00 | 0.00 | 64 | 1014.7 |
| 20260901160044 | 80 | 218 | 2.0 | 5.0 | 0.00 | 0.00 | 0.00 | 63 | 1024.3 |
| 20260901154554 | 79 | 192 | 2.0 | 5.0 | 0.00 | 0.00 | 0.00 | 69 | 1024.4 |
| 20260901154539 | 79 | 192 | 2.0 | 5.0 | 0.00 | 0.00 | 0.00 | 69 | 1014.9 |
| 20260901153048 | 78 | 281 | 1.0 | 4.0 | 0.00 | 0.00 | 0.00 | 67 | 1024.5 |
| 20260901153038 | 78 | 281 | 1.0 | 4.0 | 0.00 | 0.00 | 0.00 | 67 | 1015.0 |
| 20260901151545 | 77 | 281 | 1.0 | 6.0 | 0.00 | 0.00 | 0.00 | 72 | 1024.5 |
| 20260901151533 | 77 | 281 | 1.0 | 4.0 | 0.00 | 0.00 | 0.00 | 73 | 1015.0 |
| 20260901150050 | 76 | 0 | 0.0 | 4.0 | 0.00 | 0.00 | 0.00 | 79 | 1024.4 |
| 20260901150033 | 76 | 292 | 0.0 | 4.0 | 0.00 | 0.00 | 0.00 | 80 | 1015.0 |
| 20260901144549 | 75 | 300 | 0.0 | 3.0 | 0.00 | 0.00 | 0.00 | 81 | 1024.3 |
| 20260901144526 | 75 | 300 | 0.0 | 3.0 | 0.00 | 0.00 | 0.00 | 82 | 1014.8 |
| 20260901143049 | 73 | 0 | 0.0 | 2.0 | 0.00 | 0.00 | 0.00 | 89 | 1024.2 |
| 20260901143022 | 73 | 302 | 0.0 | 1.0 | 0.00 | 0.00 | 0.00 | 90 | 1014.9 |
| 20260901141542 | 71 | 302 | 0.0 | 2.0 | 0.00 | 0.00 | 0.00 | 93 | 1024.2 |
| 20260901141518 | 71 | 302 | 0.0 | 2.0 | 0.00 | 0.00 | 0.00 | 94 | 1014.9 |
| 20260901140056 | 69 | 0 | 0.0 | 0.0 | 0.00 | 0.00 | 0.00 | 97 | 1024.3 |
| 20260901140020 | 69 | 302 | 0.0 | 0.0 | 0.00 | 0.00 | 0.00 | 98 | 1015.0 |
| 20260901134542 | 65 | 0 | 0.0 | 0.0 | 0.00 | 0.00 | 0.00 | 98 | 1024.3 |
| 20260901134512 | 65 | 302 | 0.0 | 0.0 | 0.00 | 0.00 | 0.00 | 98 | 1015.0 |
| 20260901133101 | 61 | 0 | 0.0 | 0.0 | 0.00 | 0.00 | 0.00 | 98 | 1024.2 |
| 20260901133011 | 61 | 302 | 0.0 | 0.0 | 0.00 | 0.00 | 0.00 | 98 | 1015.0 |
| 20260901131552 | 60 | 0 | 0.0 | 0.0 | 0.00 | 0.00 | 0.00 | 98 | 1024.3 |
| 20260901131507 | 60 | 302 | 0.0 | 0.0 | 0.00 | 0.00 | 0.00 | 98 | 1015.0 |
| 20260901130046 | 59 | 0 | 0.0 | 0.0 | 0.00 | 0.00 | 0.00 | 98 | 1024.2 |
| 20260901130003 | 58 | 302 | 0.0 | 0.0 | 0.00 | 0.00 | 0.00 | 98 | 1014.9 |
| 20260901124600 | 58 | 302 | 0.0 | 0.0 | 0.00 | 0.00 | 0.00 | 98 | 1014.8 |
| 20260901124551 | 57 | 0 | 0.0 | 0.0 | 0.00 | 0.00 | 0.00 | 98 | 1024.0 |
| 20260901123057 | 56 | 302 | 0.0 | 0.0 | 0.00 | 0.00 | 0.00 | 98 | 1014.5 |
| 20260901123050 | 56 | 0 | 0.0 | 0.0 | 0.00 | 0.00 | 0.00 | 98 | 1023.8 |
| 20260901121556 | 55 | 302 | 0.0 | 0.0 | 0.00 | 0.00 | 0.00 | 98 | 1014.3 |
| 20260901121553 | 55 | 0 | 0.0 | 0.0 | 0.00 | 0.00 | 0.00 | 97 | 1023.7 |
| 20260901120116 | 56 | 302 | 0.0 | 0.0 | 0.00 | 0.00 | 0.00 | 98 | 1014.4 |
| 20260901120045 | 56 | 0 | 0.0 | 0.0 | 0.00 | 0.00 | 0.00 | 98 | 1023.7 |
| 20260901114550 | 56 | 302 | 0.0 | 0.0 | 0.00 | 0.00 | 0.00 | 98 | 1014.1 |
| 20260901114543 | 56 | 0 | 0.0 | 0.0 | 0.00 | 0.00 | 0.00 | 98 | 1023.5 |
| 20260901113056 | 56 | 302 | 0.0 | 0.0 | 0.00 | 0.00 | 0.00 | 98 | 1014.1 |
| 20260901113051 | 56 | 0 | 0.0 | 0.0 | 0.00 | 0.00 | 0.00 | 98 | 1023.5 |
| 20260901111613 | 56 | 0 | 0.0 | 0.0 | 0.00 | 0.00 | 0.00 | 97 | 1023.4 |
| 20260901111547 | 56 | 302 | 0.0 | 0.0 | 0.00 | 0.00 | 0.00 | 98 | 1014.0 |
| 20260901110049 | 56 | 0 | 0.0 | 0.0 | 0.00 | 0.00 | 0.00 | 97 | 1023.2 |
| 20260901110045 | 56 | 302 | 0.0 | 0.0 | 0.00 | 0.00 | 0.00 | 98 | 1013.7 |
| 20260901104557 | 56 | 0 | 0.0 | 0.0 | 0.00 | 0.00 | 0.00 | 98 | 1022.9 |
| 20260901104549 | 56 | 302 | 0.0 | 0.0 | 0.00 | 0.00 | 0.00 | 98 | 1013.4 |
| 20260901103051 | 56 | 0 | 0.0 | 0.0 | 0.00 | 0.00 | 0.00 | 97 | 1022.8 |
| 20260901103043 | 56 | 302 | 0.0 | 0.0 | 0.00 | 0.00 | 0.00 | 98 | 1013.3 |
| 20260901101550 | 56 | 302 | 0.0 | 0.0 | 0.00 | 0.00 | 0.00 | 98 | 1013.4 |
| 20260901101548 | 56 | 0 | 0.0 | 0.0 | 0.00 | 0.00 | 0.00 | 97 | 1022.9 |
| 20260901100055 | 57 | 0 | 0.0 | 0.0 | 0.00 | 0.00 | 0.00 | 97 | 1023.0 |
| 20260901100040 | 57 | 302 | 0.0 | 0.0 | 0.00 | 0.00 | 0.00 | 98 | 1013.5 |
| 20260901094552 | 57 | 0 | 0.0 | 0.0 | 0.00 | 0.00 | 0.00 | 97 | 1023.0 |
| 20260901094540 | 57 | 302 | 0.0 | 0.0 | 0.00 | 0.00 | 0.00 | 98 | 1013.6 |
| 20260901093048 | 57 | 302 | 0.0 | 0.0 | 0.00 | 0.00 | 0.00 | 98 | 1013.6 |
| 20260901093046 | 57 | 0 | 0.0 | 0.0 | 0.00 | 0.00 | 0.00 | 97 | 1023.1 |
| 20260901091551 | 57 | 0 | 0.0 | 1.0 | 0.00 | 0.00 | 0.00 | 97 | 1022.9 |
| 20260901091548 | 57 | 302 | 0.0 | 0.0 | 0.00 | 0.00 | 0.00 | 98 | 1013.4 |
| 20260901090057 | 58 | 0 | 0.0 | 1.0 | 0.00 | 0.00 | 0.00 | 97 | 1023.0 |
| 20260901090035 | 58 | 302 | 0.0 | 1.0 | 0.00 | 0.00 | 0.00 | 98 | 1013.4 |
| 20260901084547 | 58 | 0 | 0.0 | 0.0 | 0.00 | 0.00 | 0.00 | 97 | 1022.9 |
| 20260901084537 | 58 | 302 | 0.0 | 0.0 | 0.00 | 0.00 | 0.00 | 98 | 1013.3 |
| 20260901083047 | 58 | 0 | 0.0 | 0.0 | 0.00 | 0.00 | 0.00 | 97 | 1023.0 |
| 20260901083033 | 58 | 302 | 0.0 | 0.0 | 0.00 | 0.00 | 0.00 | 98 | 1013.5 |
| 20260901081542 | 59 | 0 | 0.0 | 0.0 | 0.00 | 0.00 | 0.00 | 97 | 1023.0 |
| 20260901081531 | 59 | 302 | 0.0 | 0.0 | 0.00 | 0.00 | 0.00 | 98 | 1013.3 |
| 20260901080107 | 59 | 0 | 0.0 | 0.0 | 0.00 | 0.00 | 0.00 | 97 | 1022.9 |
| 20260901080034 | 59 | 302 | 0.0 | 0.0 | 0.00 | 0.00 | 0.00 | 98 | 1013.2 |
| 20260901074547 | 60 | 0 | 0.0 | 0.0 | 0.00 | 0.00 | 0.00 | 97 | 1022.9 |
| 20260901074528 | 60 | 302 | 0.0 | 0.0 | 0.00 | 0.00 | 0.00 | 98 | 1013.2 |
| 20260901073045 | 61 | 0 | 0.0 | 0.0 | 0.00 | 0.00 | 0.00 | 97 | 1023.0 |
| 20260901073026 | 61 | 302 | 0.0 | 0.0 | 0.00 | 0.00 | 0.00 | 98 | 1013.3 |
| 20260901071600 | 61 | 0 | 0.0 | 0.0 | 0.00 | 0.00 | 0.00 | 97 | 1023.2 |
| 20260901071525 | 61 | 302 | 0.0 | 0.0 | 0.00 | 0.00 | 0.00 | 98 | 1013.4 |
| 20260901070055 | 61 | 0 | 0.0 | 0.0 | 0.00 | 0.00 | 0.00 | 97 | 1023.2 |
| 20260901070022 | 61 | 302 | 0.0 | 0.0 | 0.00 | 0.00 | 0.00 | 98 | 1013.5 |
| 20260901064607 | 62 | 0 | 0.0 | 0.0 | 0.00 | 0.00 | 0.00 | 97 | 1023.0 |
| 20260901064524 | 62 | 302 | 0.0 | 0.0 | 0.00 | 0.00 | 0.00 | 98 | 1013.3 |
| 20260901063106 | 63 | 0 | 0.0 | 0.0 | 0.00 | 0.00 | 0.00 | 97 | 1023.0 |
| 20260901063019 | 63 | 302 | 0.0 | 0.0 | 0.00 | 0.00 | 0.00 | 98 | 1013.3 |
| 20260901061546 | 62 | 0 | 0.0 | 1.0 | 0.00 | 0.00 | 0.00 | 97 | 1022.9 |
| 20260901061518 | 62 | 302 | 0.0 | 0.0 | 0.00 | 0.00 | 0.00 | 98 | 1013.3 |
| 20260901060047 | 63 | 0 | 0.0 | 0.0 | 0.00 | 0.00 | 0.00 | 97 | 1023.0 |
| 20260901060015 | 63 | 302 | 0.0 | 0.0 | 0.00 | 0.00 | 0.00 | 98 | 1013.3 |
| 20260901054550 | 64 | 0 | 0.0 | 0.0 | 0.00 | 0.00 | 0.00 | 97 | 1022.9 |
| 20260901054514 | 64 | 302 | 0.0 | 0.0 | 0.00 | 0.00 | 0.00 | 97 | 1013.1 |
| 20260901053050 | 64 | 0 | 0.0 | 0.0 | 0.00 | 0.00 | 0.00 | 97 | 1022.8 |
| 20260901053013 | 64 | 302 | 0.0 | 0.0 | 0.00 | 0.00 | 0.00 | 98 | 1013.1 |
| 20260901051552 | 65 | 0 | 0.0 | 0.0 | 0.00 | 0.00 | 0.00 | 97 | 1022.8 |
| 20260901051512 | 65 | 302 | 0.0 | 0.0 | 0.00 | 0.00 | 0.00 | 98 | 1013.2 |
| 20260901050053 | 65 | 0 | 0.0 | 0.0 | 0.00 | 0.00 | 0.00 | 97 | 1023.0 |
| 20260901050008 | 65 | 302 | 0.0 | 0.0 | 0.00 | 0.00 | 0.00 | 97 | 1013.2 |
| 20260901044548 | 65 | 0 | 0.0 | 0.0 | 0.00 | 0.00 | 0.00 | 97 | 1022.8 |
| 20260901044509 | 65 | 302 | 0.0 | 0.0 | 0.00 | 0.00 | 0.00 | 97 | 1013.1 |
| 20260901043050 | 65 | 0 | 0.0 | 0.0 | 0.00 | 0.00 | 0.00 | 96 | 1022.8 |
| 20260901043006 | 65 | 302 | 0.0 | 0.0 | 0.00 | 0.00 | 0.00 | 97 | 1013.0 |
| 20260901041548 | 66 | 0 | 0.0 | 0.0 | 0.00 | 0.00 | 0.00 | 96 | 1022.7 |
| 20260901041503 | 66 | 302 | 0.0 | 0.0 | 0.00 | 0.00 | 0.00 | 97 | 1012.8 |
| 20260901040046 | 67 | 0 | 0.0 | 0.0 | 0.00 | 0.00 | 0.00 | 96 | 1022.7 |
| 20260901040003 | 67 | 302 | 0.0 | 0.0 | 0.00 | 0.00 | 0.00 | 97 | 1012.8 |
| 20260901034606 | 68 | 302 | 0.0 | 0.0 | 0.00 | 0.00 | 0.00 | 97 | 1012.6 |
| 20260901034553 | 68 | 0 | 0.0 | 0.0 | 0.00 | 0.00 | 0.00 | 96 | 1022.6 |
| 20260901033124 | 69 | 302 | 0.0 | 0.0 | 0.00 | 0.00 | 0.00 | 97 | 1012.6 |
| 20260901033050 | 69 | 0 | 0.0 | 0.0 | 0.00 | 0.00 | 0.00 | 96 | 1022.5 |
| 20260901031625 | 69 | 302 | 0.0 | 0.0 | 0.00 | 0.00 | 0.00 | 97 | 1012.8 |
| 20260901031549 | 69 | 0 | 0.0 | 0.0 | 0.00 | 0.00 | 0.00 | 96 | 1022.6 |
| 20260901030059 | 70 | 302 | 0.0 | 0.0 | 0.00 | 0.00 | 0.00 | 96 | 1012.6 |
| 20260901030051 | 70 | 0 | 0.0 | 0.0 | 0.00 | 0.00 | 0.00 | 96 | 1022.6 |
| 20260901024559 | 71 | 302 | 0.0 | 0.0 | 0.00 | 0.00 | 0.00 | 96 | 1012.6 |
| 20260901024543 | 71 | 0 | 0.0 | 0.0 | 0.00 | 0.00 | 0.00 | 96 | 1022.4 |
| 20260901023107 | 71 | 302 | 0.0 | 0.0 | 0.00 | 0.00 | 0.00 | 96 | 1012.5 |
| 20260901023052 | 71 | 0 | 0.0 | 0.0 | 0.00 | 0.00 | 0.00 | 95 | 1022.4 |
| 20260901021559 | 72 | 302 | 0.0 | 0.0 | 0.00 | 0.00 | 0.00 | 95 | 1012.4 |
| 20260901021551 | 72 | 0 | 0.0 | 0.0 | 0.00 | 0.00 | 0.00 | 95 | 1022.3 |
| 20260901020057 | 73 | 302 | 0.0 | 0.0 | 0.00 | 0.00 | 0.00 | 95 | 1012.4 |
| 20260901020046 | 73 | 0 | 0.0 | 0.0 | 0.00 | 0.00 | 0.00 | 94 | 1022.3 |
| 20260901014604 | 74 | 302 | 0.0 | 0.0 | 0.00 | 0.00 | 0.00 | 94 | 1012.3 |
| 20260901014550 | 74 | 0 | 0.0 | 0.0 | 0.00 | 0.00 | 0.00 | 93 | 1022.2 |
| 20260901013100 | 74 | 0 | 0.0 | 0.0 | 0.00 | 0.00 | 0.00 | 92 | 1022.0 |
| 20260901013056 | 74 | 302 | 0.0 | 0.0 | 0.00 | 0.00 | 0.00 | 92 | 1012.0 |
| 20260901011556 | 76 | 302 | 0.0 | 0.0 | 0.00 | 0.00 | 0.00 | 90 | 1012.0 |
| 20260901011540 | 76 | 0 | 0.0 | 0.0 | 0.00 | 0.00 | 0.00 | 90 | 1021.9 |
| 20260901010056 | 77 | 302 | 0.0 | 0.0 | 0.00 | 0.00 | 0.00 | 88 | 1011.7 |
| 20260901010052 | 77 | 0 | 0.0 | 0.0 | 0.00 | 0.00 | 0.00 | 88 | 1021.7 |
| 20260901004556 | 79 | 0 | 1.0 | 4.0 | 0.00 | 0.00 | 0.00 | 83 | 1021.6 |
| 20260901003102 | 80 | 312 | 0.0 | 6.0 | 0.00 | 0.00 | 0.00 | 83 | 1011.7 |
| 20260901003057 | 80 | 312 | 0.0 | 6.0 | 0.00 | 0.00 | 0.00 | 82 | 1021.6 |
| 20260901001613 | 80 | 292 | 0.0 | 5.0 | 0.00 | 0.00 | 0.00 | 82 | 1011.5 |
| 20260901001547 | 80 | 292 | 1.0 | 5.0 | 0.00 | 0.00 | 0.00 | 82 | 1021.3 |
| 20260901000053 | 81 | 275 | 0.0 | 3.0 | 0.00 | 0.00 | 0.00 | 79 | 1011.2 |
| 20260901000045 | 81 | 0 | 0.0 | 3.0 | 0.00 | 0.00 | 0.00 | 78 | 1021.0 |
| 20260831234553 | 82 | 275 | 0.0 | 3.0 | 0.00 | 0.00 | 0.00 | 77 | 1011.2 |
| 20260831234551 | 82 | 275 | 1.0 | 3.0 | 0.00 | 0.00 | 0.00 | 77 | 1021.0 |
| 20260831233052 | 83 | 275 | 0.0 | 1.0 | 0.00 | 0.00 | 0.00 | 74 | 1011.0 |
| 20260831233050 | 83 | 0 | 0.0 | 1.0 | 0.00 | 0.00 | 0.00 | 74 | 1020.9 |
| 20260831231554 | 84 | 275 | 1.0 | 4.0 | 0.00 | 0.00 | 0.00 | 72 | 1011.0 |
| 20260831231551 | 84 | 275 | 1.0 | 4.0 | 0.00 | 0.00 | 0.00 | 71 | 1020.9 |
| 20260831230052 | 85 | 290 | 0.0 | 6.0 | 0.00 | 0.00 | 0.00 | 69 | 1010.9 |
| 20260831230048 | 85 | 290 | 1.0 | 7.0 | 0.00 | 0.00 | 0.00 | 69 | 1020.7 |
| 20260831224555 | 86 | 250 | 2.0 | 8.0 | 0.00 | 0.01 | 0.00 | 69 | 1010.9 |
| 20260831224541 | 86 | 321 | 3.0 | 8.0 | 0.00 | 0.01 | 0.00 | 68 | 1020.8 |
| 20260831223049 | 86 | 266 | 2.0 | 6.0 | 0.00 | 0.01 | 0.00 | 72 | 1010.9 |
| 20260831223045 | 86 | 266 | 1.0 | 7.0 | 0.00 | 0.01 | 0.00 | 70 | 1020.7 |
| 20260831221558 | 86 | 273 | 2.0 | 7.0 | 0.00 | 0.01 | 0.00 | 71 | 1010.7 |
| 20260831221544 | 86 | 274 | 2.0 | 8.0 | 0.00 | 0.01 | 0.00 | 71 | 1020.5 |
| 20260831220050 | 85 | 0 | 1.0 | 6.0 | 0.00 | 0.01 | 0.00 | 71 | 1020.5 |
| 20260831220047 | 85 | 222 | 0.0 | 6.0 | 0.00 | 0.01 | 0.00 | 71 | 1010.6 |
| 20260831214555 | 86 | 231 | 2.0 | 7.0 | 0.00 | 0.05 | 0.00 | 71 | 1010.4 |
| 20260831214546 | 86 | 231 | 3.0 | 8.0 | 0.00 | 0.05 | 0.00 | 70 | 1020.3 |
| 20260831213055 | 86 | 198 | 3.0 | 8.0 | 0.00 | 0.05 | 0.00 | 71 | 1020.3 |
| 20260831213052 | 86 | 205 | 3.0 | 8.0 | 0.00 | 0.05 | 0.00 | 72 | 1010.4 |
| 20260831211604 | 86 | 232 | 3.0 | 8.0 | 0.00 | 0.05 | 0.00 | 72 | 1020.2 |
| 20260831211545 | 86 | 180 | 2.0 | 8.0 | 0.00 | 0.05 | 0.00 | 72 | 1010.3 |
| 20260831210047 | 86 | 197 | 2.0 | 10.0 | 0.00 | 0.05 | 0.00 | 74 | 1020.2 |
| 20260831210044 | 86 | 169 | 2.0 | 10.0 | 0.00 | 0.05 | 0.00 | 74 | 1010.3 |
| 20260831204553 | 86 | 218 | 3.0 | 6.0 | 0.00 | 0.05 | 0.00 | 73 | 1010.4 |
| 20260831204543 | 86 | 218 | 2.0 | 10.0 | 0.00 | 0.05 | 0.00 | 73 | 1020.2 |
| 20260831203052 | 85 | 257 | 2.0 | 9.0 | 0.00 | 0.05 | 0.00 | 75 | 1010.4 |
| 20260831203041 | 85 | 259 | 3.0 | 9.0 | 0.00 | 0.05 | 0.00 | 74 | 1020.0 |
| 20260831201558 | 84 | 192 | 5.0 | 9.0 | 0.00 | 0.05 | 0.00 | 75 | 1020.2 |
| 20260831201539 | 84 | 179 | 5.0 | 9.0 | 0.00 | 0.05 | 0.00 | 76 | 1010.4 |
| 20260831200045 | 84 | 240 | 3.0 | 7.0 | 0.00 | 0.05 | 0.00 | 76 | 1020.3 |
| 20260831200040 | 84 | 240 | 3.0 | 7.0 | 0.00 | 0.05 | 0.00 | 77 | 1010.6 |
| 20260831194628 | 83 | 203 | 4.0 | 11.0 | 0.00 | 0.05 | 0.00 | 78 | 1020.3 |
| 20260831194536 | 83 | 203 | 3.0 | 10.0 | 0.00 | 0.05 | 0.00 | 78 | 1010.6 |
| 20260831193049 | 83 | 205 | 4.0 | 8.0 | 0.00 | 0.05 | 0.00 | 79 | 1020.5 |
| 20260831193035 | 83 | 188 | 4.0 | 8.0 | 0.00 | 0.05 | 0.00 | 78 | 1010.8 |
| 20260831191544 | 83 | 209 | 3.0 | 10.0 | 0.00 | 0.05 | 0.00 | 78 | 1020.7 |
| 20260831190049 | 83 | 183 | 5.0 | 10.0 | 0.00 | 0.05 | 0.00 | 79 | 1020.6 |
| 20260831190034 | 83 | 182 | 5.0 | 9.0 | 0.00 | 0.05 | 0.00 | 79 | 1010.9 |
| 20260831184553 | 83 | 221 | 1.0 | 4.0 | 0.00 | 0.05 | 0.00 | 79 | 1020.4 |
| 20260831184532 | 83 | 218 | 1.0 | 5.0 | 0.00 | 0.05 | 0.00 | 79 | 1010.7 |
| 20260831183047 | 82 | 191 | 2.0 | 9.0 | 0.00 | 0.05 | 0.00 | 80 | 1020.4 |
| 20260831183031 | 82 | 194 | 2.0 | 9.0 | 0.00 | 0.05 | 0.00 | 81 | 1010.9 |
| 20260831181549 | 81 | 176 | 3.0 | 8.0 | 0.00 | 0.05 | 0.00 | 81 | 1020.4 |
| 20260831181529 | 81 | 176 | 2.0 | 6.0 | 0.00 | 0.05 | 0.00 | 82 | 1010.9 |
| 20260831180041 | 81 | 197 | 2.0 | 7.0 | 0.00 | 0.05 | 0.00 | 83 | 1020.4 |
| 20260831180029 | 81 | 197 | 2.0 | 6.0 | 0.00 | 0.05 | 0.00 | 83 | 1010.9 |
| 20260831174554 | 80 | 144 | 3.0 | 7.0 | 0.00 | 0.05 | 0.00 | 83 | 1020.4 |
| 20260831174527 | 80 | 144 | 4.0 | 7.0 | 0.00 | 0.05 | 0.00 | 84 | 1011.0 |